Regional Weather Roundup
Issued by NWS

Home | Current Version | Previous Version | Text Only | Print | Product List | Glossary Off
Versions: 1 2 3 4 5 6 7 8 9 10 11 12 13 14 15 16 17 18 19 20 21 22 23 24 25 26 27 28 29 30 31 32 33 34 35 36 37 38 39 40 41 42 43 44 45 46 47 48 49 50

000
ASUS43 KMKX 250700
RWRWI

WISCONSIN REGIONAL WEATHER ROUNDUP
NATIONAL WEATHER SERVICE MILWAUKEE/SULLIVAN WI
200 AM CDT TUE JUL 25 2017

NOTE: "FAIR" INDICATES FEW OR NO CLOUDS BELOW 12,000 FEET WITH NO
SIGNIFICANT WEATHER AND/OR OBSTRUCTIONS TO VISIBILITY.

WIZ001-002-006>008-014>016-023>028-250800-
NORTHWEST WISCONSIN

CITY           SKY/WX    TMP DP  RH WIND       PRES   REMARKS
SUPERIOR ARPT  NOT AVBL
ASHLAND        FAIR      52  51  97 SW3       30.07S FOG
HAYWARD        FAIR      58  55  90 CALM      30.08S
SIREN          FAIR      64  58  82 S6        30.06R
CUMBERLAND     FAIR      59  55  88 S5        30.08S
RICE LAKE      FAIR      61  58  88 SE7       30.09F
CHETEK         FAIR      59  58  97 SE7       30.09F
LADYSMITH      FAIR      61  57  88 SE3       30.12S
EAU CLAIRE     NOT AVBL
MENOMONIE      FAIR      61  59  94 E5        30.09S
NEW RICHMOND   FAIR      64  58  80 S9        30.07R
OSCEOLA        FAIR      66  59  77 SE8       30.08S
$$

WIZ003>005-009-010-017-018-250800-
NORTH CENTRAL WISCONSIN

CITY           SKY/WX    TMP DP  RH WIND       PRES   REMARKS
MANITOWISH WTR FAIR      59  59 100 S6        30.13R
ARBOR VITAE    FAIR      62  56  83 SW7       30.14R
WOODRUFF       FAIR      62  56  83 SW7       30.14R
RHINELANDER    FAIR      56  52  86 SW3       30.16R
EAGLE RIVER    FAIR      56  53  89 CALM      30.14R
LAND O LAKES   FAIR      52  52 100 CALM      30.15S
PHILLIPS       FAIR      59  57  93 SE5       30.11F
TOMAHAWK         N/A     54  51  92 CALM      30.16R
MEDFORD        FAIR      58  55  89 SE5       30.13F
MERRILL        FAIR      52  52 100 CALM      30.16R
$$

WIZ029-030-035-036-043>047-250800-
CENTRAL WISCONSIN

CITY           SKY/WX    TMP DP  RH WIND       PRES   REMARKS
WAUSAU         FAIR      59  52  77 SE3       30.14R
MOSINEE        FAIR      55  52  88 S3        30.16R
MARSHFIELD     FAIR      59  53  80 S5        30.14R
STEVENS POINT  FAIR      56  52  89 CALM      30.16R
WAUPACA        FAIR      58  56  95 CALM      30.15R
WAUTOMA        FAIR      54  53  97 CALM      30.16R
WISC RAPIDS    FAIR      58  54  86 SE6       30.16R
CAMP DOUGLAS   FAIR      55  55 100 SE3       30.13F FOG
$$

WIZ011>013-019>022-031-037>040-048>050-250800-
NORTHEAST WISCONSIN

CITY           SKY/WX    TMP DP  RH WIND       PRES   REMARKS
ANTIGO         FAIR      55  51  87 S5        30.16R
SHAWANO        FAIR      59  54  83 CALM      30.14S
OCONTO         FAIR      53  52  96 CALM      30.14R
STURGEON BAY     N/A     55  52  89 CALM      30.15S
GREEN BAY      FAIR      56  56 100 CALM      30.15R
MANITOWOC      NOT AVBL
APPLETON       FAIR      63  43  48 CALM      30.14R
CLINTONVILLE   FAIR     N/A N/A N/A CALM      30.14S
OSHKOSH        FAIR      56  50  80 CALM      30.14R
$$

WIZ032>034-041-042-053>061-250800-
SOUTHWEST WISCONSIN

CITY           SKY/WX    TMP DP  RH WIND       PRES   REMARKS
LA CROSSE      FAIR      64  60  87 SE7       30.10R
SPARTA         FAIR      54  54 100 CALM      30.13R
VIROQUA        FAIR      61  60  97 CALM      30.13S
BOSCOBEL       FOG       61  60  97 CALM      30.13S VSB 1/2
PRAIRIE DU CHI FAIR      60  58  93 E6        30.11S
PLATTEVILLE    FAIR      62  61  98 E7        30.14S
$$

WIZ056-057-062-063-064-067-068-250800-
SOUTH CENTRAL WISCONSIN

CITY           SKY/WX    TMP DP  RH WIND       PRES   REMARKS
REEDSBURG      FAIR      59  59 100 CALM      30.14R
BARABOO/DELLS  FAIR      57  54  89 CALM      30.15R
LONE ROCK      FAIR      57  56  96 CALM      30.14R FOG
MINERAL POINT  FAIR      63  61  94 E6        30.14S
MADISON        FAIR      58  53  84 S5        30.15R
MIDDLETON      FAIR      58  57  98 CALM      30.16R
WATERTOWN      FAIR      54  54 100 CALM      30.14R
MONROE         FAIR      59  57  94 E5        30.15R
JANESVILLE     FAIR      59  59 100 CALM      30.14R
$$

WIZ051-052-058>065-066-070>072-250800-
SOUTHEAST WISCONSIN

CITY           SKY/WX    TMP DP  RH WIND       PRES   REMARKS
MILWAUKEE      FAIR      62  57  83 CALM      30.14S
WAUKESHA       FAIR      55  52  88 CALM      30.16R
MILWAUKEE/TIMM FAIR      55  50  82 CALM      30.15R
RACINE         FAIR      59  57  93 CALM      30.15S
KENOSHA        FAIR      56  55  97 CALM      30.14S
FOND DU LAC    FAIR      53  49  86 CALM      30.14R
SHEBOYGAN      FAIR      51  51 100 CALM      30.14S
WEST BEND      FAIR      52  52 100 CALM      30.15S
JUNEAU         FAIR      56  50  80 CALM      30.15S
$$

LSZ147-162-250800-
LAKE SUPERIOR

STATION/POSITION TIME  TEMP    WIND        PRES    WAVE
                       AIR SEA DIR/SP/G            HT/PER
                 (UTC) (F)     (DEG/KT/KT) (MB)    (FT/S)
W MID LAKE BUOY  0550   56 50  130/  8/  8 1017.9R   0
DEVILS ISLAND    0600   64     150/  8/  9 1017.7S
SAXON HARBOR     0630   58     210/  5/  6 1017.6S
$$

LMZ867-665-643>646-250800-
LAKE MICHIGAN

STATION/POSITION TIME  TEMP    WIND        PRES    WAVE
                       AIR SEA DIR/SP/G            HT/PER
                 (UTC) (F)     (DEG/KT/KT) (MB)    (FT/S)
CHAMBERS ISLAND  0640   56      CALM  /  1 1020.0S
S GREEN BAY BUOY 0600   69 72  120/  6/  8 1019.9
N MID LAKE BUOY  0550   65 66   10/  2/  2 1021.2R   0
NORTHPORT PIER   0640   60        CALM     1020.3S
KEWAUNEE LAKESHO 0630   56     310/  3/  4 1019.6S
SHEBOYGAN LAKESH 0600   62     300/  2/  3 1020.4R
PORT WASHINGTON  0630   59     280/  2/  3 1021.3S
ATWATER BUOY     0509   67 68   40/  4/  8 1020.7R
MILWAUKEE LAKESH 0630   67      60/  6/  6   N/A
S MID LAKE BUOY  0550   69 70   30/  8/ 10 1020.5R   2/ 6
KENOSHA   LAKESH 0600   67      30/  4/  6 1020.3
$$

TC  - TEMPERATURE IN CELSIUS
VSB - VISIBILITY IN STATUTE MILES
WCI - WIND CHILL INDEX
HX  - HEAT INDEX





USA.gov is the U.S. government's official web portal to all federal, state and local government web resources and services.